Weather Roundup
Issued by NWS Springfield, MO

Home | Current Version | Previous Version | Text Only | Print | Product List | Glossary On
Versions: 1 2 3 4 5 6 7 8 9 10 11 12 13 14 15 16 17 18 19 20 21 22 23 24 25 26 27 28 29 30 31 32 33 34 35 36 37 38 39 40 41 42 43 44 45 46 47 48 49 50
000
NZUS99 KSGF 211007
HRRSGF

HOURLY WEATHER
NATIONAL WEATHER SERVICE SPRINGFIELD MO
500 AM CDT FRI JUL 21 2017

......SGF CWA......

CITY           SKY/WX    TMP DP  RH WIND       PRES   REMARKS
SPRINGFIELD    CLEAR     73  71  93 S5        30.02S
JOPLIN         PTCLDY    78  73  84 S9        30.00S
WEST PLAINS    CLEAR     76  73  91 CALM      30.04F
ROLLA          CLEAR     74  71  91 SW8       30.01S
OSAGE BEACH    CLEAR     72  69  90 CALM      30.01R
BRANSON        PTCLDY    75  72  88 CALM      30.05R

......SURROUNDING SGF CWA......

CITY           SKY/WX    TMP DP  RH WIND       PRES   REMARKS
CHANUTE        PTCLDY    79  72  79 S9        29.97F
PARSONS        CLEAR     78  73  84 S3        29.98F
COFFEYVILLE    CLEAR     77  74  90 S6        29.97F
EMPORIA        CLEAR     77  70  79 S13       29.94S
GROVE OK       CLEAR     73  72  94 CALM      30.02S
ROGERS AR      CLEAR     77  72  84 S7        30.05R
SILOAM SPRINGS CLEAR     75  70  83 S7        30.03S
HARRISON AR    CLEAR     73  71  93 CALM      30.04S
NEAR YELLVILLE CLEAR     75  68  78 SE5       29.99S

......KANSAS AND MISSOURI......

CITY           SKY/WX    TMP DP  RH WIND       PRES   REMARKS
KANSAS CTY INT CLEAR     79  72  79 S12       29.94S
DOWNTOWN KC    CLEAR     85  72  65 SW10      29.92F HX  91
COLUMBIA       CLEAR     77  73  87 S3        29.99R
ST JOSEPH      CLOUDY    78  75  90 S7        29.91F
ST LOUIS       CLEAR     85  71  63 SW3       29.97S HX  90
SPIRIT OF STL  PTCLDY    79  73  82 CALM      29.96S
KIRKSVILLE     CLOUDY    78  75  90 S5        29.97S
WICHITA        CLEAR     77  70  79 S9        29.95F
TOPEKA         PTCLDY    82  74  76 CALM      29.91F
OLATHE         CLEAR     77  73  87 S8        29.95F

......TENNESSEE......

CITY           SKY/WX    TMP DP  RH WIND       PRES   REMARKS
MEMPHIS        CLEAR     80  76  87 CALM      30.01S
NASHVILLE      CLOUDY    76  73  91 CALM      30.04R

......ARKANSAS.......

CITY           SKY/WX    TMP DP  RH WIND       PRES   REMARKS
FAYETTEVILLE   CLEAR     72  72 100 CALM      30.05R
FT SMITH       CLEAR     79  77  94 CALM      30.00S
LITTLE ROCK    CLEAR     78  77  96 SW3       30.00S

......OKLAHOMA.......

CITY           SKY/WX    TMP DP  RH WIND       PRES   REMARKS
TULSA          CLEAR     81  73  76 S9        29.97S
PONCA CITY     CLEAR     81  68  64 S3        29.96S
MCALESTER      CLEAR     78  72  81 SW5       30.01S
OKLAHOMA CITY  PTCLDY    76  69  79 S7        29.99F

......IOWA............

CITY           SKY/WX    TMP DP  RH WIND       PRES   REMARKS
DES MOINES     CLOUDY    76  72  87 SE7       29.90F
QUAD CITIES    LGT RAIN  73  70  90 SE6       29.96R

......ILLINOIS........

CITY           SKY/WX    TMP DP  RH WIND       PRES   REMARKS
QUINCY         CLOUDY    78  74  87 N3        29.97R
CHICAGO        CLOUDY    75  69  81 W7        29.99R



USA.gov is the U.S. government's official web portal to all federal, state and local government web resources and services.